GW4937 Weather Reports


time (UTC)temp
F
wind
direction
speed
knots
gust
knots
rain 1hr
in
rain 24hr
in
rain mn
in
humidity
%
barometer
mb
20260510203143 69 129 5.2 7.8 0.00 0.00 0.00 54 1019.0
20260510202642 69 131 4.3 5.2 0.00 0.00 0.00 58 1019.1
20260510202137 69 131 0.9 1.7 0.00 0.00 0.00 58 1019.0
20260510201635 69 233 5.2 7.0 0.00 0.00 0.00 54 1019.1
20260510201132 67 150 0.9 0.9 0.00 0.00 0.00 59 1019.0
20260510200628 67 150 0.9 2.6 0.00 0.00 0.00 59 1019.0
20260510200126 68 80 0.9 1.7 0.00 0.00 0.00 56 1019.2
20260510195624 68 167 0.9 1.7 0.00 0.00 0.00 56 1019.2
20260510195120 68 127 3.5 6.1 0.00 0.00 0.00 55 1019.2
20260510194619 68 207 0.0 0.9 0.00 0.00 0.00 54 1019.3
20260510194116 68 213 2.6 2.6 0.00 0.00 0.00 52 1019.4
20260510193616 69 143 1.7 1.7 0.00 0.00 0.00 53 1019.3
20260510193112 69 233 1.7 1.7 0.00 0.00 0.00 52 1019.2
20260510192607 70 244 0.9 7.0 0.00 0.00 0.00 52 1019.1
20260510192103 70 263 2.6 3.5 0.00 0.00 0.00 50 1019.1
20260510191559 70 282 4.3 7.8 0.00 0.00 0.00 49 1019.1
20260510191056 70 309 6.1 7.8 0.00 0.00 0.00 48 1019.4
20260510190553 70 97 2.6 2.6 0.00 0.00 0.00 49 1019.0
20260510190051 69 329 2.6 6.1 0.00 0.00 0.00 49 1019.1
20260510185548 70 293 5.2 9.6 0.00 0.00 0.00 49 1018.8
20260510185045 70 304 2.6 5.2 0.00 0.00 0.00 49 1019.2
20260510184542 70 243 1.7 5.2 0.00 0.00 0.00 49 1018.8
20260510184038 70 291 7.8 12.2 0.00 0.00 0.00 46 1018.8
20260510183533 71 276 3.5 7.8 0.00 0.00 0.00 48 1018.8
20260510183028 71 142 1.7 3.5 0.00 0.00 0.00 48 1018.8
20260510182526 73 63 2.6 7.8 0.00 0.00 0.00 45 1019.0
20260510182020 70 53 2.6 7.0 0.00 0.00 0.00 48 1018.8
20260510181519 73 265 5.2 9.6 0.00 0.00 0.00 45 1019.1
20260510181014 73 280 3.5 7.0 0.00 0.00 0.00 45 1019.1
20260510180512 73 222 1.7 2.6 0.00 0.00 0.00 50 1019.0
20260510180009 71 299 0.9 1.7 0.00 0.00 0.00 49 1018.8
20260510175504 72 282 4.3 7.0 0.00 0.00 0.00 46 1019.1
20260510175000 72 119 5.2 7.8 0.00 0.00 0.00 46 1018.8
20260510174458 71 141 4.3 6.1 0.00 0.00 0.00 54 1019.2
20260510173955 71 131 4.3 7.0 0.00 0.00 0.00 47 1019.2
20260510173451 71 253 0.9 6.1 0.00 0.00 0.00 50 1019.1
20260510172948 71 259 1.7 7.8 0.00 0.00 0.00 48 1019.0
20260510172443 71 157 5.2 7.0 0.00 0.00 0.00 49 1019.3
20260510171940 71 204 1.7 2.6 0.00 0.00 0.00 49 1019.3
20260510171436 71 327 5.2 7.0 0.00 0.00 0.00 48 1019.4
20260510170933 70 266 3.5 6.1 0.00 0.00 0.00 48 1019.6
20260510170430 69 282 1.7 7.0 0.00 0.00 0.00 50 1019.4
20260510165925 70 315 7.0 8.7 0.00 0.00 0.00 50 1019.7
20260510165422 69 267 6.1 8.7 0.00 0.00 0.00 51 1019.6
20260510164919 70 139 2.6 8.7 0.00 0.00 0.00 53 1019.8
20260510164416 70 246 2.6 8.7 0.00 0.00 0.00 55 1020.0
20260510163910 69 110 1.7 8.7 0.00 0.00 0.00 55 1019.8
20260510163407 70 159 1.7 9.6 0.00 0.00 0.00 55 1019.9
20260510162902 69 215 5.2 12.2 0.00 0.00 0.00 55 1019.7
20260510162400 69 230 6.1 8.7 0.00 0.00 0.00 52 1019.7
20260510161855 69 280 1.7 7.8 0.00 0.00 0.00 54 1020.0
20260510161351 69 282 9.6 11.3 0.00 0.00 0.00 51 1019.7
20260510160848 68 194 7.0 12.2 0.00 0.00 0.00 51 1019.8
20260510160345 68 266 3.5 13.0 0.00 0.00 0.00 55 1019.9
20260510155843 68 206 5.2 13.9 0.00 0.00 0.00 56 1019.8
20260510155341 67 266 5.2 9.6 0.00 0.00 0.00 57 1019.7
20260510154837 68 120 1.7 7.0 0.00 0.00 0.00 60 1019.7
20260510154333 68 284 0.9 3.5 0.00 0.00 0.00 58 1019.7
20260510153827 68 303 5.2 7.0 0.00 0.00 0.00 57 1019.6
20260510153323 69 269 2.6 5.2 0.00 0.00 0.00 56 1019.9
20260510152820 69 229 1.7 7.0 0.00 0.00 0.00 57 1019.8
20260510152318 67 286 2.6 7.0 0.00 0.00 0.00 58 1019.8
20260510151814 68 104 2.6 6.1 0.00 0.00 0.00 59 1019.4
20260510151312 67 251 2.6 5.2 0.00 0.00 0.00 60 1019.8
20260510150807 67 295 0.0 6.1 0.00 0.00 0.00 58 1019.9
20260510150303 67 229 2.6 9.6 0.00 0.00 0.00 61 1019.9
20260510145759 67 212 1.7 3.5 0.00 0.00 0.00 59 1019.7
20260510145256 67 249 4.3 7.8 0.00 0.00 0.00 63 1019.9
20260510144753 66 254 3.5 7.8 0.00 0.00 0.00 60 1019.6
20260510144249 66 306 6.1 7.0 0.00 0.00 0.00 61 1019.6
20260510143743 65 263 9.6 11.3 0.00 0.00 0.00 62 1019.6
20260510143240 65 217 3.5 6.1 0.00 0.00 0.00 61 1019.4
20260510142736 65 285 2.6 7.0 0.00 0.00 0.00 64 1019.6
20260510142233 65 242 3.5 3.5 0.00 0.00 0.00 61 1019.5
20260510141730 64 257 3.5 5.2 0.00 0.00 0.00 63 1019.4
20260510141229 64 282 2.6 5.2 0.00 0.00 0.00 65 1019.3
20260510140726 65 158 1.7 7.8 0.00 0.00 0.00 63 1019.5
20260510140225 63 273 1.7 5.2 0.00 0.00 0.00 69 1019.4
20260510135720 63 293 7.0 7.8 0.00 0.00 0.00 66 1019.5
20260510135216 63 207 5.2 9.6 0.00 0.00 0.00 68 1019.5
20260510134714 64 242 2.6 3.5 0.00 0.00 0.00 67 1019.4
20260510134211 62 262 0.9 3.5 0.00 0.00 0.00 70 1019.6
20260510133707 63 252 4.3 7.8 0.00 0.00 0.00 68 1019.5
20260510133202 63 112 0.0 3.5 0.00 0.00 0.00 73 1019.4
20260510132658 62 282 0.0 3.5 0.00 0.00 0.00 73 1019.4
20260510132155 62 209 2.6 6.1 0.00 0.00 0.00 70 1019.6
20260510131653 61 119 1.7 1.7 0.00 0.00 0.00 72 1019.5
20260510131151 61 297 4.3 5.2 0.00 0.00 0.00 72 1019.4
20260510130647 61 288 3.5 5.2 0.00 0.00 0.00 74 1019.6
20260510130144 60 320 1.7 1.7 0.00 0.00 0.00 74 1019.5
20260510125640 60 117 3.5 5.2 0.00 0.00 0.00 76 1019.2
20260510125137 59 248 0.0 3.5 0.00 0.00 0.00 77 1019.3
20260510124634 59 185 3.5 7.8 0.00 0.00 0.00 77 1019.5
20260510124130 59 163 2.6 5.2 0.00 0.00 0.00 78 1019.4
20260510123626 58 199 0.0 2.6 0.00 0.00 0.00 79 1019.3
20260510123122 58 214 1.7 8.7 0.00 0.00 0.00 80 1019.1
20260510122618 58 122 0.9 5.2 0.00 0.00 0.00 80 1019.4
20260510122114 58 147 2.6 5.2 0.00 0.00 0.00 79 1019.2
20260510121611 58 162 2.6 5.2 0.00 0.00 0.00 80 1019.2
20260510121108 57 119 1.7 5.2 0.00 0.00 0.00 80 1018.8
20260510120607 57 198 1.7 2.6 0.00 0.00 0.00 81 1018.8
20260510115558 56 117 0.9 5.2 0.00 0.00 0.00 83 1018.7
20260510115056 56 157 1.7 6.1 0.00 0.00 0.00 83 1018.7
20260510114552 56 146 1.7 2.6 0.00 0.00 0.00 84 1018.7
20260510114048 56 101 0.0 2.6 0.00 0.00 0.00 85 1018.5
20260510113542 55 156 1.7 5.2 0.00 0.00 0.00 84 1018.3
20260510113041 55 145 2.6 3.5 0.00 0.00 0.00 86 1018.5
20260510112537 54 119 4.3 6.1 0.00 0.00 0.00 85 1018.4
20260510112033 54 132 5.2 8.7 0.00 0.00 0.00 86 1018.4
20260510111530 53 131 1.7 2.6 0.00 0.00 0.00 88 1018.5
20260510111026 54 142 1.7 2.6 0.00 0.00 0.00 88 1018.3
20260510110522 53 141 1.7 5.2 0.00 0.00 0.00 88 1018.5
20260510110019 53 166 0.0 3.5 0.00 0.00 0.00 90 1018.3
20260510105514 53 142 1.7 5.2 0.00 0.00 0.00 90 1018.4
20260510105009 53 200 1.7 2.6 0.00 0.00 0.00 89 1018.3
20260510104506 52 136 4.3 5.2 0.00 0.00 0.00 91 1018.0
20260510104002 52 140 0.9 5.2 0.00 0.00 0.00 92 1018.0
20260510103500 52 227 0.9 2.6 0.00 0.00 0.00 91 1018.0
20260510102955 52 149 4.3 6.1 0.00 0.00 0.00 93 1017.8
20260510102451 51 179 3.5 3.5 0.00 0.00 0.00 94 1017.8
20260510101948 51 130 0.9 1.7 0.00 0.00 0.00 94 1017.8
20260510101446 51 167 0.9 1.7 0.00 0.00 0.00 96 1017.5
20260510100944 50 122 1.7 1.7 0.00 0.00 0.00 96 1017.3
20260510100440 50 216 0.9 1.7 0.00 0.00 0.00 97 1017.4
20260510095936 50 133 0.9 0.9 0.00 0.00 0.00 98 1017.4
20260510095432 50 108 1.7 5.2 0.00 0.00 0.00 98 1017.4
20260510094931 49 124 0.9 5.2 0.00 0.00 0.00 99 1017.4
20260510094426 48 163 0.0 0.9 0.00 0.00 0.00 99 1017.3
20260510093922 48 159 1.7 1.7 0.00 0.00 0.00 99 1017.4
20260510093419 48 129 1.7 3.5 0.00 0.00 0.00 99 1017.1
20260510092915 46 298 0.0 0.0 0.00 0.00 0.00 99 1017.3
20260510092413 45 292 0.0 0.0 0.00 0.00 0.00 99 1017.2
20260510091912 46 292 0.0 0.0 0.00 0.00 0.00 99 1017.1
20260510091409 47 292 0.9 1.7 0.00 0.00 0.00 99 1017.2
20260510090906 46 202 0.0 0.9 0.00 0.00 0.00 99 1017.2
20260510090403 46 199 0.0 1.7 0.00 0.00 0.00 99 1017.0
20260510085858 45 122 0.0 0.0 0.00 0.00 0.00 99 1017.0
20260510085354 45 142 0.0 0.0 0.00 0.00 0.00 99 1016.8
20260510084849 45 167 0.0 0.0 0.00 0.00 0.00 99 1017.0
20260510084347 45 118 0.0 0.0 0.00 0.00 0.00 99 1016.8
20260510083843 46 107 0.0 0.0 0.00 0.00 0.00 99 1016.9
20260510083340 46 162 0.0 0.0 0.00 0.00 0.00 99 1017.0
20260510082835 46 146 0.0 0.0 0.00 0.00 0.00 99 1016.8
20260510082333 47 137 0.0 0.0 0.00 0.00 0.00 99 1016.7
20260510081831 46 115 0.0 0.0 0.00 0.00 0.00 99 1016.8
20260510081328 46 120 0.0 0.0 0.00 0.00 0.00 99 1016.5
20260510080824 46 98 0.0 0.0 0.00 0.00 0.00 99 1016.8
20260510080319 47 135 0.0 0.0 0.00 0.00 0.00 99 1016.6
20260510075817 47 197 0.0 0.0 0.00 0.00 0.00 99 1016.5
20260510075314 48 129 0.0 0.0 0.00 0.00 0.00 99 1016.6
20260510074810 48 135 0.0 0.9 0.00 0.00 0.00 99 1016.6
20260510074307 47 148 0.0 0.0 0.00 0.00 0.00 99 1016.7
20260510073803 47 158 0.0 0.0 0.00 0.00 0.00 99 1016.6
20260510073259 48 170 0.0 0.0 0.00 0.00 0.00 99 1016.7
20260510072755 48 200 0.0 0.0 0.00 0.00 0.00 99 1016.5
20260510072252 48 205 0.0 0.0 0.00 0.00 0.00 98 1016.7
20260510071748 48 260 0.0 0.0 0.00 0.00 0.00 98 1016.7
20260510071245 49 260 0.0 0.9 0.00 0.00 0.00 98 1016.6
20260510070744 49 155 0.0 0.9 0.00 0.00 0.00 99 1016.5
20260510070241 47 244 0.9 1.7 0.00 0.00 0.00 99 1016.3
20260510065740 48 154 0.0 0.0 0.00 0.00 0.00 99 1016.5
20260510065237 49 190 0.0 0.0 0.00 0.00 0.00 99 1016.3
20260510064734 48 192 0.0 3.5 0.00 0.00 0.00 99 1016.3
20260510064232 48 133 0.0 0.0 0.00 0.00 0.00 99 1016.4
20260510063728 48 124 0.0 0.0 0.00 0.00 0.00 99 1016.5
20260510063224 47 326 0.0 0.0 0.00 0.00 0.00 99 1016.4
20260510062721 47 326 0.0 0.0 0.00 0.00 0.00 99 1016.5
20260510062217 47 326 0.0 0.0 0.00 0.00 0.00 98 1016.3
20260510061712 47 326 0.0 0.0 0.00 0.00 0.00 98 1016.3
20260510061210 48 326 0.0 0.0 0.00 0.00 0.00 98 1016.4
20260510060706 48 326 0.0 0.0 0.00 0.00 0.00 98 1016.4
20260510060203 49 326 0.0 0.9 0.00 0.00 0.00 98 1016.5
20260510055659 49 326 0.0 0.9 0.00 0.00 0.00 97 1016.5
20260510055157 49 123 0.0 0.0 0.00 0.00 0.00 97 1016.4
20260510054652 49 123 0.0 0.9 0.00 0.00 0.00 96 1016.6
20260510054148 50 123 0.0 0.0 0.00 0.00 0.00 96 1016.5
20260510053647 50 170 0.0 3.5 0.00 0.00 0.00 96 1016.4
20260510053144 48 113 0.0 0.0 0.00 0.00 0.00 99 1016.5
20260510052640 48 63 0.0 0.0 0.00 0.00 0.00 99 1016.4
20260510052136 48 125 0.0 0.0 0.00 0.00 0.00 99 1016.4
20260510051632 48 135 0.0 0.9 0.00 0.00 0.00 99 1016.5
20260510051129 47 133 0.0 0.0 0.00 0.00 0.00 99 1016.5
20260510050626 48 225 0.0 0.0 0.00 0.00 0.00 99 1016.6
20260510050123 48 291 0.0 0.9 0.00 0.00 0.00 99 1016.5
20260510045620 48 213 0.0 0.0 0.00 0.00 0.00 99 1016.5
20260510045117 48 196 0.0 0.9 0.00 0.00 0.00 99 1016.4
20260510044613 47 172 0.0 0.0 0.00 0.00 0.00 99 1016.5
20260510044111 47 144 0.0 0.0 0.00 0.00 0.00 99 1016.6
20260510043606 47 144 0.0 0.0 0.00 0.00 0.00 99 1016.5
20260510043102 47 154 0.0 0.0 0.00 0.00 0.00 99 1016.6
20260510042601 47 181 0.0 0.0 0.00 0.00 0.00 99 1016.7
20260510042056 47 201 0.0 0.0 0.00 0.00 0.00 99 1016.4
20260510041553 47 140 0.0 0.0 0.00 0.00 0.00 99 1016.5
20260510041051 47 136 0.0 0.0 0.00 0.00 0.00 98 1016.4
20260510040548 47 140 0.0 0.0 0.00 0.00 0.00 98 1016.5
20260510040043 48 140 0.0 0.0 0.00 0.00 0.00 98 1016.1
20260510035540 48 134 0.0 0.0 0.00 0.00 0.00 98 1016.4
20260510035039 48 225 0.0 0.0 0.00 0.00 0.00 97 1016.4
20260510034538 48 143 0.0 0.0 0.00 0.00 0.00 97 1016.4
20260510034035 49 146 0.0 0.0 0.00 0.00 0.00 97 1016.4
20260510033530 48 126 0.0 0.9 0.00 0.00 0.00 97 1016.3
20260510033029 48 133 0.0 0.0 0.00 0.00 0.00 97 1016.4
20260510032525 48 128 0.0 0.0 0.00 0.00 0.00 96 1016.3
20260510032020 48 106 0.0 0.0 0.00 0.00 0.00 97 1016.4
20260510031516 48 139 0.0 0.0 0.00 0.00 0.00 96 1016.4
20260510031012 49 143 0.0 0.0 0.00 0.00 0.00 96 1016.5
20260510030507 48 125 0.0 0.0 0.00 0.00 0.00 96 1016.5
20260510030004 49 160 0.0 0.0 0.00 0.00 0.00 96 1016.6
20260510025456 49 101 0.0 0.0 0.00 0.00 0.00 96 1016.6
20260510024953 48 125 0.0 0.0 0.00 0.00 0.00 96 1016.7
20260510024449 48 126 0.0 0.0 0.00 0.00 0.00 95 1016.6
20260510023945 49 125 0.0 0.0 0.00 0.00 0.00 95 1016.5
20260510023442 49 142 0.0 0.0 0.00 0.00 0.00 94 1016.5
20260510022939 49 120 0.0 0.0 0.00 0.00 0.00 95 1016.3
20260510022438 0 0.0 0.0 0.00 0.00 0.00 1016.4
20260510021937 0 0.0 0.0 0.00 0.00 0.00 1016.3
20260510021435 49 131 0.0 0.0 0.00 0.00 0.00 94 1016.1
20260510020932 49 131 0.0 0.0 0.00 0.00 0.00 94 1016.1
20260510020426 0 0.0 0.0 0.00 0.00 0.00 1015.8
20260510015922 0 0.0 0.0 0.00 0.00 0.00 1016.0
20260510015418 0 0.0 0.0 0.00 0.00 0.00 1015.6
20260510014914 0 0.0 0.0 0.00 0.00 0.00 1015.8
20260510014412 0 0.0 0.0 0.00 0.00 0.00 1015.6
20260510013908 0 0.0 0.0 0.00 0.00 0.00 1015.5
20260510013403 0 0.0 0.0 0.00 0.00 0.00 1015.4
20260510012858 0 0.0 0.0 0.00 0.00 0.00 1015.3
20260510012353 0 0.0 0.0 0.00 0.00 0.00 1015.3
20260510011848 0 0.0 0.0 0.00 0.00 0.00 1015.2
20260510011344 0 0.0 0.0 0.00 0.00 0.00 1015.2
20260510010840 0 0.0 0.0 0.00 0.00 0.00 1015.1
20260510010338 54 144 0.0 0.9 0.00 0.00 0.00 81 1015.0
20260510005834 54 144 0.0 0.9 0.00 0.00 0.00 81 1015.0
20260510005330 54 122 0.0 0.0 0.00 0.00 0.00 79 1014.8
20260510004828 55 116 0.0 0.0 0.00 0.00 0.00 78 1014.8
20260510004326 56 135 0.0 0.0 0.00 0.00 0.00 74 1014.8
20260510003823 57 133 1.7 2.6 0.00 0.00 0.00 74 1014.8
20260510003320 58 37 0.0 0.0 0.00 0.00 0.00 71 1015.0
20260510002818 58 37 0.9 0.9 0.00 0.00 0.00 70 1014.7
20260510002316 58 301 0.9 1.7 0.00 0.00 0.00 70 1014.5
20260510001812 58 80 0.0 1.7 0.00 0.00 0.00 69 1015.0
20260510001311 58 296 0.9 1.7 0.00 0.00 0.00 68 1014.5
20260510000806 59 196 0.0 1.7 0.00 0.00 0.00 67 1014.5
20260510000304 60 292 1.7 1.7 0.00 0.00 0.00 65 1014.4
20260509235801 60 230 0.9 2.6 0.00 0.00 0.00 63 1014.4
20260509235257 61 248 0.9 2.6 0.00 0.00 0.00 62 1014.3
20260509234753 61 331 1.7 1.7 0.00 0.00 0.00 62 1014.2
20260509234250 62 174 1.7 2.6 0.00 0.00 0.00 60 1014.3
20260509233749 62 260 1.7 3.5 0.00 0.00 0.00 61 1014.2
20260509233246 63 262 9.6 12.2 0.00 0.00 0.00 59 1014.2
20260509232741 62 229 1.7 1.7 0.00 0.00 0.00 60 1014.2
20260509232239 62 122 2.6 5.2 0.00 0.00 0.00 62 1014.3
20260509231735 63 129 3.5 5.2 0.00 0.00 0.00 57 1014.1
20260509231232 64 289 2.6 3.5 0.00 0.00 0.00 56 1014.1
20260509230730 64 303 0.9 1.7 0.00 0.00 0.00 58 1014.1
20260509230227 63 284 4.3 6.1 0.00 0.00 0.00 57 1014.0
20260509225722 63 302 5.2 7.0 0.00 0.00 0.00 58 1014.1
20260509225218 64 244 1.7 5.2 0.00 0.00 0.00 56 1014.1
20260509224713 65 248 4.3 5.2 0.00 0.00 0.00 56 1014.0
20260509224211 64 256 1.7 1.7 0.00 0.00 0.00 59 1013.9
20260509223708 64 152 1.7 6.1 0.00 0.00 0.00 54 1014.1
20260509223205 64 287 1.7 3.5 0.00 0.00 0.00 56 1014.2
20260509222702 64 279 7.8 7.8 0.00 0.00 0.00 54 1014.3
20260509222157 64 202 1.7 5.2 0.00 0.00 0.00 56 1014.2
20260509221653 65 143 3.5 5.2 0.00 0.00 0.00 54 1014.2
20260509221149 65 177 2.6 6.1 0.00 0.00 0.00 51 1014.3
20260509220645 64 194 0.9 3.5 0.00 0.00 0.00 52 1014.3
20260509220141 63 294 3.5 3.5 0.00 0.00 0.00 55 1014.0
20260509215638 63 259 1.7 3.5 0.00 0.00 0.00 55 1014.3
20260509215134 64 197 0.9 3.5 0.00 0.00 0.00 54 1014.3
20260509214632 64 275 2.6 7.0 0.00 0.00 0.00 53 1014.2
20260509214128 64 109 1.7 3.5 0.00 0.00 0.00 52 1014.3
20260509213625 64 41 0.9 3.5 0.00 0.00 0.00 54 1014.2
20260509213121 64 298 1.7 6.1 0.00 0.00 0.00 56 1014.3
20260509212619 63 247 0.0 2.6 0.00 0.00 0.00 60 1014.4
20260509212115 63 151 3.5 5.2 0.00 0.00 0.00 56 1014.3
20260509211611 65 239 1.7 5.2 0.00 0.00 0.00 56 1014.2
20260509211108 64 109 1.7 7.0 0.00 0.00 0.00 54 1014.1
20260509210605 63 130 3.5 7.0 0.00 0.00 0.00 54 1014.0
20260509205555 63 126 2.6 6.1 0.00 0.00 0.00 55 1013.9
20260509205051 63 306 1.7 7.0 0.00 0.00 0.00 54 1013.8
20260509204547 64 118 1.7 7.0 0.00 0.00 0.00 56 1013.8
20260509204044 64 135 1.7 6.1 0.00 0.00 0.00 55 1013.8
20260509203540 64 116 0.9 7.0 0.00 0.00 0.00 54 1013.9